Location: Iesi
(43.5167°N, 13.2333°E)
Time: 15:42:04
(UTC+00:00)

Cosmos 1805 Rocket - Visible Passes

Search period start: 30 November 2020 00:00
Search period end: 10 December 2020 00:00
Orbit: 607 x 629 km, 82.5° (Epoch: 30 November)

Date Brightness Start Highest point End Pass type
(mag) Time Alt. Az. Time Alt. Az. Time Alt. Az.
30 Nov 6.4 03:55:17 10° SE 03:58:15 18° E 04:01:14 10° NE visible
30 Nov 3.9 05:31:31 10° SSW 05:35:44 42° WNW 05:40:00 10° N visible
30 Nov 6.7 17:17:53 10° NW 17:20:17 14° W 17:22:39 10° WSW visible
01 Dec 5.5 04:11:06 10° SSE 04:15:00 31° E 04:18:57 10° NNE visible
01 Dec 3.7 15:55:28 10° N 15:59:57 84° W 16:04:21 10° S visible
02 Dec 4.2 04:27:30 10° S 04:31:51 57° E 04:36:14 10° NNE visible
02 Dec 4.9 16:12:35 10° NNW 16:16:50 45° W 16:21:01 10° SSW visible
03 Dec 3.5 04:44:21 10° SSW 04:48:46 77° W 04:53:15 10° N visible
03 Dec 6.1 16:30:01 10° NNW 16:33:38 25° W 16:37:13 10° SW visible
04 Dec 6.3 03:25:18 10° SE 03:28:20 18° E 03:31:21 10° NE visible
04 Dec 3.9 05:01:36 10° SSW 05:05:48 41° WNW 05:10:04 10° N visible
04 Dec 6.6 16:48:02 10° NW 16:50:21 14° W 16:52:38 10° WSW visible
05 Dec 5.3 03:41:08 10° SSE 03:45:04 32° E 03:49:02 10° NNE visible
05 Dec 4.6 05:19:20 10° SW 05:22:56 24° WNW 05:26:35 10° NNW visible
06 Dec 4.1 03:57:33 10° S 04:01:55 59° E 04:06:19 10° NNE visible
06 Dec 5.2 05:37:49 10° W 05:40:11 14° WNW 05:42:33 10° NW visible
07 Dec 6.8 02:41:20 10° E 02:41:43 10° E 02:42:06 10° ENE visible
07 Dec 3.4 04:14:25 10° SSW 04:18:51 76° W 04:23:20 10° N visible
07 Dec 6.1 16:00:07 10° NW 16:03:41 24° W 16:07:14 10° SW visible
08 Dec 6.5 03:01:07 11° NE 03:01:07 11° NE 03:01:27 10° NE visible
08 Dec 5.1 04:38:27 21° NNW 04:38:27 21° NNW 04:40:08 10° N visible
08 Dec 6.6 16:18:10 10° NW 16:20:24 14° W 16:22:37 10° WSW visible
